Terminal Aerodrome Forecast
Issued by NWS Knoxville/Tri Cities, TN

Home | Current Version | Previous Version | Text Only | Print | Product List | Glossary On
Versions: 1 2 3 4 5 6 7 8 9 10 11 12 13 14 15 16 17 18 19 20 21 22 23 24 25 26 27 28 29 30 31 32 33 34 35 36 37 38 39 40 41 42 43 44 45 46 47 48
000
FTUS44 KMRX 181723
TAFTRI
TAF
KTRI 181723Z 1818/1918 VRB04KT P6SM SCT030 BKN120
     FM182000 34004KT P6SM FEW070 SCT250
     FM190100 00000KT P6SM SCT250
     FM190800 00000KT 4SM BR SCT250
     FM191400 VRB03KT P6SM SCT080=

USA.gov is the U.S. government's official web portal to all federal, state and local government web resources and services.